GEFSMW_prec_meanprecacc_156.txt.gz
Total_Precipitation_Accumulation
1.79 2.15 2.48 2.91 3.34 3.86 4.55 5.10 5.44 5.38 5.11 4.71 4.27 3.94 3.47 3.12 2.77 2.39 2.08 1.88 1.72 1.65 1.83 1.67 1.75 1.76 1.72 1.60 1.56 1.64 1.65 1.45 1.69 1.86 1.44 1.07 0.93 0.86 0.75 0.75 0.78 0.71 0.75
1.69 1.97 2.46 2.80 3.15 3.62 4.10 4.47 4.39 4.05 3.89 3.80 3.62 3.31 3.26 3.09 2.82 2.56 2.30 1.88 1.70 1.58 1.46 1.53 1.47 1.48 1.55 1.41 1.32 1.46 1.45 1.24 1.45 1.57 1.48 1.11 0.95 0.80 0.59 0.63 0.63 0.68 0.83
1.31 1.61 2.13 2.45 2.62 3.00 3.29 3.32 3.17 2.93 2.91 2.92 2.79 2.79 2.95 2.99 2.86 2.65 2.37 2.03 1.82 1.70 1.60 1.51 1.36 1.32 1.28 1.27 1.24 1.31 1.33 1.22 1.19 1.24 1.41 1.19 0.94 0.77 0.56 0.50 0.56 0.72 0.87
0.96 1.27 1.64 1.82 2.03 2.21 2.35 2.37 2.37 2.27 2.24 2.28 2.15 1.97 2.01 2.16 2.31 2.46 2.41 2.38 2.18 1.93 1.73 1.58 1.38 1.19 1.10 1.20 1.02 1.06 1.23 1.28 1.10 1.03 1.05 1.07 1.14 1.11 0.80 0.54 0.47 0.68 0.77
0.91 1.11 1.21 1.33 1.46 1.49 1.63 1.67 1.86 2.07 2.13 2.10 2.16 1.97 1.67 1.58 1.56 1.67 1.80 1.84 1.84 1.72 1.49 1.38 1.30 1.11 0.99 1.00 0.99 1.11 1.14 1.14 1.04 1.01 0.97 1.02 1.17 1.17 1.09 0.83 0.69 0.70 0.62
0.69 0.85 0.97 1.04 1.08 1.11 1.25 1.43 1.68 1.99 2.11 2.08 1.97 1.87 1.72 1.65 1.55 1.46 1.42 1.36 1.39 1.35 1.26 1.17 1.13 1.02 0.97 0.99 0.94 0.99 1.07 1.14 1.16 1.15 1.14 1.17 1.16 1.22 1.34 1.15 0.99 0.90 0.73
0.47 0.47 0.54 0.61 0.68 0.72 0.83 1.09 1.28 1.46 1.61 1.70 1.64 1.51 1.59 1.66 1.53 1.34 1.20 1.09 1.02 0.99 1.03 1.05 1.04 0.99 1.00 1.05 1.10 1.09 1.06 1.11 1.19 1.19 1.23 1.27 1.23 1.29 1.42 1.37 1.17 1.07 1.01
0.30 0.27 0.32 0.39 0.45 0.50 0.57 0.69 0.93 1.07 1.23 1.33 1.41 1.46 1.59 1.66 1.58 1.60 1.36 1.18 1.03 0.94 0.96 1.07 1.09 1.03 0.98 0.95 1.11 1.11 1.14 1.18 1.19 1.14 1.31 1.37 1.24 1.36 1.51 1.55 1.52 1.40 1.39
0.19 0.20 0.23 0.28 0.31 0.36 0.43 0.47 0.61 0.80 1.01 1.15 1.28 1.32 1.27 1.27 1.30 1.34 1.32 1.18 1.15 1.00 1.05 1.10 1.14 1.13 1.13 1.13 1.20 1.14 1.22 1.38 1.40 1.35 1.40 1.42 1.36 1.38 1.49 1.63 1.69 1.71 1.67
0.18 0.19 0.19 0.21 0.22 0.26 0.36 0.45 0.50 0.66 0.98 1.26 1.30 1.18 1.12 1.00 1.06 1.08 1.13 1.18 1.16 1.12 1.13 1.13 1.13 1.14 1.12 1.13 1.21 1.22 1.30 1.45 1.51 1.57 1.65 1.61 1.48 1.52 1.56 1.60 1.72 1.84 1.88
0.17 0.16 0.15 0.15 0.20 0.22 0.30 0.47 0.58 0.72 0.99 1.29 1.44 1.37 1.20 1.11 1.09 0.98 0.93 1.02 1.09 1.13 1.15 1.09 1.02 0.95 0.94 1.07 1.23 1.24 1.31 1.39 1.45 1.49 1.48 1.46 1.47 1.50 1.39 1.45 1.58 1.75 1.90
0.15 0.14 0.10 0.10 0.14 0.17 0.28 0.58 0.87 1.20 1.37 1.60 1.81 1.74 1.38 1.16 1.06 0.89 0.81 0.90 1.04 1.11 1.10 1.04 0.98 0.92 0.97 1.12 1.23 1.34 1.54 1.65 1.60 1.52 1.43 1.33 1.38 1.45 1.43 1.51 1.52 1.59 1.82
0.17 0.17 0.12 0.11 0.11 0.13 0.19 0.36 0.47 0.78 1.08 1.39 1.65 1.56 1.24 1.02 0.93 0.88 0.87 0.99 1.10 1.12 1.08 1.07 1.07 1.14 1.23 1.36 1.45 1.51 1.64 1.65 1.55 1.51 1.41 1.32 1.35 1.36 1.43 1.52 1.52 1.51 1.56
0.23 0.19 0.17 0.15 0.12 0.13 0.15 0.25 0.33 0.38 0.57 0.94 1.20 1.20 1.03 0.94 0.87 0.88 0.92 0.94 0.99 1.03 1.08 1.23 1.40 1.50 1.55 1.57 1.62 1.63 1.57 1.52 1.40 1.33 1.24 1.24 1.33 1.38 1.40 1.36 1.39 1.42 1.50
0.21 0.15 0.15 0.19 0.18 0.22 0.21 0.24 0.30 0.33 0.48 0.83 1.03 1.01 0.93 0.90 0.84 0.81 0.86 0.93 1.01 1.06 1.20 1.37 1.49 1.47 1.47 1.48 1.57 1.59 1.53 1.44 1.31 1.18 0.99 0.95 1.14 1.27 1.30 1.20 1.26 1.31 1.37
0.22 0.18 0.16 0.20 0.23 0.24 0.25 0.25 0.28 0.33 0.47 0.75 0.96 0.98 0.91 0.84 0.78 0.81 0.91 1.06 1.13 1.23 1.35 1.40 1.40 1.35 1.08 1.05 1.13 1.21 1.25 1.24 1.18 1.07 0.99 0.94 0.95 0.94 0.93 0.94 0.97 1.04 1.14
0.25 0.23 0.23 0.28 0.32 0.32 0.35 0.38 0.37 0.39 0.53 0.76 0.94 1.01 0.96 0.94 0.92 0.89 1.02 1.18 1.25 1.32 1.38 1.37 1.34 1.29 1.22 1.07 0.94 0.92 0.99 1.05 1.06 1.05 1.07 0.86 0.75 0.83 0.83 0.85 0.80 0.76 0.79
0.31 0.34 0.33 0.37 0.40 0.41 0.46 0.51 0.49 0.52 0.65 0.83 0.99 1.02 0.99 1.03 1.12 1.12 1.17 1.32 1.46 1.47 1.46 1.44 1.39 1.40 1.33 1.18 1.00 0.88 0.85 0.98 1.05 1.04 1.05 1.03 0.97 0.94 0.99 0.99 0.91 0.79 0.74
0.35 0.45 0.51 0.49 0.52 0.53 0.56 0.58 0.61 0.67 0.78 0.85 0.98 1.07 1.15 1.25 1.29 1.31 1.42 1.58 1.69 1.64 1.64 1.67 1.63 1.60 1.58 1.36 1.06 0.92 0.93 1.08 1.09 1.09 1.07 1.06 1.03 1.01 0.90 0.90 0.91 0.88 0.86
0.34 0.42 0.53 0.59 0.64 0.63 0.64 0.73 0.80 0.93 1.09 1.16 1.21 1.37 1.54 1.71 1.80 1.82 1.86 1.89 1.96 1.87 1.82 1.75 1.70 1.63 1.65 1.56 1.19 1.02 1.04 1.21 1.24 1.27 1.23 1.08 0.95 0.88 0.77 0.78 0.91 0.89 0.86
0.34 0.38 0.43 0.53 0.61 0.65 0.78 0.96 1.05 1.17 1.30 1.40 1.48 1.68 1.98 2.15 2.10 2.07 2.01 1.96 1.97 1.96 1.93 1.85 1.82 1.80 1.77 1.69 1.30 1.13 1.19 1.35 1.43 1.40 1.32 1.23 1.05 0.82 0.75 0.71 0.77 0.80 0.83
0.36 0.39 0.43 0.49 0.61 0.72 0.96 1.24 1.33 1.31 1.39 1.57 1.77 1.97 2.19 2.16 2.07 2.22 2.14 2.10 2.13 2.10 2.03 2.02 1.97 1.97 1.92 1.76 1.45 1.17 1.20 1.35 1.50 1.55 1.47 1.36 1.13 0.88 0.77 0.71 0.67 0.65 0.64
0.39 0.44 0.51 0.59 0.69 0.86 1.18 1.46 1.54 1.59 1.61 1.72 1.89 2.01 2.10 2.28 2.42 2.46 2.38 2.28 2.22 2.17 2.04 1.98 1.90 1.85 1.89 1.86 1.43 1.16 1.19 1.26 1.34 1.52 1.53 1.29 1.06 0.91 0.76 0.74 0.74 0.67 0.63
0.44 0.51 0.59 0.73 0.91 1.07 1.34 1.46 1.51 1.53 1.56 1.57 1.60 1.75 1.94 2.07 2.17 2.40 2.47 2.40 2.26 2.20 2.15 2.03 1.91 1.85 1.89 1.87 1.53 1.23 1.18 1.22 1.22 1.32 1.38 1.25 1.09 0.97 0.86 0.81 0.77 0.74 0.76
0.48 0.59 0.68 0.78 0.90 1.07 1.23 1.27 1.37 1.46 1.57 1.56 1.52 1.53 1.59 1.73 1.82 1.95 2.08 2.09 2.11 1.93 1.83 1.72 1.66 1.66 1.71 1.68 1.42 1.24 1.23 1.35 1.41 1.38 1.42 1.43 1.30 1.17 1.07 1.03 1.06 1.07 1.03
0.47 0.58 0.70 0.81 0.91 1.04 1.22 1.27 1.36 1.45 1.52 1.52 1.46 1.46 1.49 1.58 1.66 1.71 1.68 1.53 1.47 1.31 1.18 1.14 1.11 1.12 1.16 1.25 1.11 1.00 1.09 1.26 1.32 1.26 1.29 1.40 1.39 1.31 1.22 1.16 1.16 1.15 1.09

GEFSMW_prec_meanprecacc_162.txt.gz
Total_Precipitation_Accumulation
1.83 2.19 2.51 2.94 3.37 3.88 4.58 5.13 5.47 5.41 5.15 4.76 4.33 4.01 3.52 3.16 2.83 2.46 2.23 2.02 1.80 1.71 1.90 1.70 1.79 1.80 1.75 1.62 1.58 1.67 1.68 1.50 1.74 1.93 1.52 1.17 1.01 0.91 0.79 0.77 0.81 0.74 0.80
1.76 2.06 2.56 2.86 3.19 3.65 4.13 4.50 4.43 4.10 3.94 3.86 3.70 3.40 3.34 3.18 2.91 2.66 2.43 2.05 1.83 1.68 1.54 1.58 1.50 1.51 1.59 1.44 1.35 1.48 1.48 1.27 1.48 1.60 1.53 1.17 1.02 0.87 0.63 0.66 0.66 0.71 0.87
1.36 1.66 2.20 2.51 2.67 3.04 3.32 3.36 3.21 2.97 2.96 2.99 2.88 2.90 3.06 3.09 2.98 2.77 2.48 2.18 1.99 1.85 1.71 1.57 1.41 1.36 1.31 1.30 1.27 1.34 1.37 1.27 1.22 1.27 1.43 1.21 0.96 0.80 0.59 0.53 0.58 0.76 0.93
1.05 1.32 1.66 1.85 2.07 2.23 2.38 2.41 2.41 2.32 2.30 2.33 2.22 2.07 2.12 2.26 2.41 2.59 2.57 2.52 2.35 2.10 1.86 1.69 1.45 1.23 1.13 1.23 1.05 1.10 1.28 1.33 1.14 1.07 1.08 1.09 1.19 1.13 0.83 0.56 0.50 0.70 0.80
1.05 1.18 1.25 1.37 1.50 1.52 1.66 1.71 1.92 2.15 2.20 2.17 2.24 2.08 1.79 1.71 1.70 1.79 1.92 1.98 2.01 1.88 1.63 1.49 1.38 1.16 1.03 1.04 1.03 1.15 1.17 1.17 1.07 1.05 1.02 1.09 1.22 1.19 1.11 0.84 0.72 0.72 0.65
0.79 0.92 1.02 1.08 1.13 1.14 1.29 1.48 1.75 2.07 2.20 2.20 2.11 2.02 1.85 1.78 1.67 1.61 1.59 1.51 1.56 1.53 1.41 1.29 1.24 1.11 1.04 1.04 1.00 1.05 1.11 1.16 1.19 1.18 1.18 1.21 1.20 1.24 1.36 1.18 1.00 0.91 0.75
0.52 0.52 0.59 0.67 0.73 0.77 0.87 1.13 1.35 1.53 1.69 1.81 1.79 1.68 1.73 1.78 1.65 1.46 1.33 1.23 1.17 1.15 1.15 1.17 1.18 1.11 1.10 1.13 1.19 1.17 1.12 1.15 1.22 1.21 1.26 1.30 1.25 1.32 1.45 1.42 1.21 1.09 1.04
0.34 0.31 0.35 0.43 0.49 0.54 0.60 0.73 0.99 1.14 1.30 1.41 1.53 1.60 1.72 1.79 1.71 1.75 1.51 1.31 1.14 1.05 1.07 1.20 1.23 1.14 1.09 1.04 1.19 1.18 1.20 1.24 1.24 1.18 1.35 1.40 1.27 1.41 1.58 1.63 1.60 1.45 1.43
0.23 0.23 0.26 0.32 0.35 0.39 0.47 0.52 0.66 0.85 1.06 1.23 1.38 1.45 1.40 1.38 1.42 1.49 1.48 1.33 1.28 1.15 1.21 1.25 1.31 1.29 1.26 1.24 1.30 1.23 1.29 1.45 1.46 1.40 1.44 1.47 1.40 1.45 1.57 1.70 1.78 1.78 1.73
0.24 0.23 0.22 0.24 0.25 0.29 0.40 0.51 0.56 0.71 1.03 1.33 1.44 1.31 1.23 1.11 1.17 1.19 1.24 1.31 1.29 1.26 1.29 1.28 1.29 1.32 1.30 1.28 1.35 1.34 1.40 1.55 1.59 1.63 1.71 1.66 1.55 1.59 1.63 1.67 1.81 1.95 1.97
0.25 0.24 0.19 0.19 0.25 0.26 0.34 0.52 0.63 0.77 1.04 1.35 1.51 1.44 1.26 1.19 1.20 1.10 1.04 1.14 1.22 1.25 1.27 1.22 1.19 1.15 1.18 1.31 1.45 1.42 1.45 1.51 1.56 1.57 1.55 1.52 1.53 1.57 1.47 1.52 1.64 1.82 1.98
0.22 0.20 0.14 0.14 0.18 0.20 0.31 0.62 0.92 1.25 1.41 1.65 1.86 1.79 1.43 1.24 1.15 0.99 0.92 1.01 1.16 1.23 1.22 1.16 1.13 1.10 1.19 1.36 1.46 1.53 1.70 1.79 1.72 1.61 1.51 1.39 1.44 1.51 1.49 1.57 1.58 1.65 1.88
0.22 0.23 0.16 0.15 0.16 0.17 0.22 0.39 0.52 0.83 1.14 1.44 1.70 1.61 1.32 1.13 1.03 1.01 1.00 1.08 1.18 1.22 1.20 1.20 1.24 1.31 1.41 1.54 1.62 1.67 1.81 1.80 1.67 1.61 1.49 1.40 1.42 1.44 1.53 1.61 1.59 1.56 1.61
0.28 0.25 0.23 0.22 0.20 0.20 0.20 0.29 0.36 0.44 0.62 0.98 1.24 1.25 1.11 1.03 0.98 1.02 1.04 1.03 1.06 1.11 1.17 1.34 1.53 1.64 1.70 1.73 1.78 1.78 1.74 1.68 1.55 1.45 1.35 1.36 1.46 1.51 1.52 1.46 1.45 1.47 1.56
0.28 0.23 0.25 0.32 0.34 0.36 0.33 0.33 0.36 0.38 0.52 0.87 1.06 1.04 0.98 0.98 0.94 0.91 0.96 1.02 1.10 1.16 1.33 1.50 1.62 1.62 1.62 1.66 1.75 1.74 1.67 1.59 1.45 1.32 1.12 1.08 1.27 1.39 1.42 1.30 1.36 1.41 1.45
0.32 0.28 0.25 0.33 0.39 0.42 0.42 0.38 0.38 0.39 0.51 0.78 0.99 1.01 0.95 0.89 0.84 0.87 0.99 1.15 1.23 1.34 1.48 1.54 1.53 1.46 1.21 1.22 1.30 1.36 1.40 1.40 1.32 1.19 1.11 1.08 1.11 1.09 1.06 1.05 1.07 1.13 1.22
0.34 0.27 0.28 0.37 0.50 0.49 0.48 0.49 0.44 0.43 0.57 0.79 0.96 1.05 1.01 1.01 0.98 0.95 1.10 1.28 1.36 1.42 1.48 1.48 1.45 1.39 1.34 1.21 1.08 1.06 1.13 1.20 1.18 1.18 1.20 1.00 0.89 0.98 0.98 1.00 0.93 0.86 0.88
0.40 0.40 0.37 0.42 0.52 0.51 0.53 0.57 0.56 0.57 0.69 0.87 1.03 1.09 1.06 1.10 1.18 1.19 1.26 1.43 1.58 1.59 1.56 1.53 1.48 1.49 1.45 1.33 1.14 1.02 0.98 1.13 1.19 1.17 1.17 1.15 1.09 1.06 1.11 1.13 1.04 0.91 0.85
0.48 0.53 0.56 0.53 0.57 0.59 0.61 0.63 0.66 0.72 0.83 0.89 1.03 1.14 1.22 1.32 1.35 1.38 1.50 1.66 1.77 1.73 1.72 1.75 1.72 1.70 1.68 1.47 1.17 1.04 1.06 1.23 1.26 1.26 1.23 1.20 1.16 1.15 1.03 1.01 1.01 0.99 0.95
0.50 0.52 0.61 0.64 0.68 0.68 0.72 0.78 0.85 0.97 1.13 1.20 1.26 1.44 1.63 1.80 1.87 1.89 1.94 1.97 2.02 1.93 1.88 1.81 1.77 1.72 1.73 1.64 1.25 1.09 1.13 1.31 1.35 1.41 1.38 1.24 1.11 1.03 0.90 0.90 1.02 0.98 0.94
0.46 0.48 0.52 0.61 0.66 0.69 0.84 1.02 1.09 1.21 1.35 1.46 1.53 1.74 2.06 2.22 2.17 2.14 2.09 2.05 2.06 2.04 2.00 1.91 1.88 1.87 1.83 1.77 1.38 1.22 1.27 1.43 1.52 1.50 1.45 1.37 1.20 0.96 0.86 0.81 0.85 0.86 0.87
0.43 0.45 0.49 0.54 0.65 0.77 1.00 1.28 1.38 1.36 1.45 1.63 1.83 2.04 2.28 2.24 2.13 2.27 2.21 2.19 2.24 2.20 2.11 2.07 2.02 2.03 1.98 1.83 1.55 1.31 1.35 1.50 1.63 1.68 1.61 1.48 1.24 0.98 0.86 0.76 0.71 0.68 0.66
0.43 0.48 0.53 0.62 0.71 0.89 1.22 1.51 1.58 1.63 1.66 1.79 1.95 2.06 2.17 2.33 2.46 2.51 2.43 2.35 2.31 2.27 2.12 2.04 1.95 1.90 1.94 1.94 1.52 1.27 1.31 1.39 1.45 1.60 1.61 1.34 1.11 0.95 0.80 0.76 0.75 0.68 0.64
0.47 0.53 0.61 0.75 0.93 1.09 1.37 1.50 1.55 1.58 1.62 1.64 1.67 1.79 1.97 2.10 2.19 2.42 2.50 2.44 2.30 2.24 2.20 2.08 1.95 1.89 1.92 1.90 1.57 1.27 1.24 1.28 1.27 1.35 1.41 1.28 1.10 0.98 0.87 0.82 0.79 0.75 0.77
0.49 0.60 0.69 0.78 0.91 1.08 1.26 1.30 1.41 1.49 1.60 1.59 1.56 1.57 1.63 1.76 1.85 1.97 2.10 2.11 2.13 1.96 1.86 1.74 1.68 1.68 1.73 1.70 1.45 1.26 1.25 1.37 1.43 1.40 1.43 1.44 1.31 1.18 1.07 1.04 1.06 1.07 1.04
0.49 0.60 0.71 0.81 0.91 1.05 1.24 1.31 1.39 1.47 1.54 1.54 1.48 1.48 1.51 1.60 1.68 1.73 1.69 1.54 1.49 1.33 1.20 1.16 1.12 1.13 1.18 1.27 1.13 1.01 1.10 1.26 1.33 1.26 1.29 1.40 1.39 1.31 1.23 1.17 1.17 1.15 1.10

GEFSMW_prec_meanprecacc_168.txt.gz
Total_Precipitation_Accumulation
1.84 2.20 2.54 2.97 3.40 3.91 4.60 5.16 5.51 5.45 5.20 4.82 4.40 4.09 3.61 3.26 2.94 2.59 2.38 2.15 1.90 1.79 1.97 1.78 1.86 1.87 1.82 1.67 1.62 1.70 1.71 1.52 1.78 1.99 1.59 1.21 1.04 0.93 0.80 0.78 0.83 0.76 0.82
1.78 2.09 2.59 2.89 3.21 3.67 4.15 4.53 4.47 4.14 4.00 3.92 3.77 3.48 3.45 3.31 3.05 2.80 2.56 2.17 1.95 1.78 1.61 1.65 1.56 1.57 1.64 1.48 1.38 1.51 1.51 1.31 1.54 1.66 1.62 1.22 1.04 0.88 0.63 0.66 0.67 0.75 0.91
1.39 1.71 2.25 2.54 2.70 3.07 3.35 3.40 3.26 3.03 3.03 3.06 2.96 2.99 3.17 3.20 3.08 2.87 2.59 2.31 2.14 1.99 1.83 1.65 1.48 1.44 1.36 1.34 1.31 1.39 1.41 1.32 1.27 1.31 1.47 1.23 0.97 0.81 0.59 0.54 0.59 0.78 0.95
1.09 1.37 1.71 1.88 2.09 2.27 2.42 2.45 2.46 2.40 2.39 2.43 2.32 2.18 2.23 2.37 2.52 2.73 2.73 2.69 2.49 2.23 1.97 1.78 1.54 1.32 1.21 1.29 1.10 1.15 1.33 1.39 1.19 1.12 1.10 1.11 1.20 1.14 0.83 0.57 0.50 0.71 0.81
1.08 1.22 1.29 1.40 1.52 1.55 1.71 1.77 2.00 2.26 2.33 2.30 2.37 2.23 1.96 1.88 1.88 1.98 2.09 2.11 2.11 1.99 1.75 1.62 1.51 1.26 1.10 1.10 1.09 1.21 1.22 1.23 1.12 1.10 1.07 1.13 1.26 1.21 1.11 0.85 0.72 0.73 0.66
0.81 0.95 1.08 1.14 1.17 1.18 1.35 1.55 1.83 2.17 2.34 2.36 2.30 2.22 2.06 1.97 1.82 1.72 1.67 1.59 1.64 1.62 1.52 1.43 1.37 1.21 1.11 1.11 1.07 1.13 1.17 1.22 1.23 1.22 1.22 1.24 1.24 1.27 1.38 1.19 1.01 0.92 0.76
0.58 0.60 0.72 0.82 0.81 0.82 0.92 1.18 1.41 1.62 1.81 1.95 1.94 1.83 1.87 1.93 1.76 1.55 1.41 1.31 1.26 1.24 1.26 1.32 1.31 1.22 1.18 1.21 1.27 1.24 1.17 1.20 1.26 1.25 1.30 1.34 1.28 1.35 1.48 1.44 1.22 1.10 1.05
0.39 0.37 0.42 0.53 0.62 0.62 0.65 0.78 1.05 1.22 1.40 1.53 1.64 1.72 1.84 1.91 1.80 1.83 1.60 1.39 1.22 1.15 1.18 1.31 1.32 1.22 1.17 1.13 1.27 1.24 1.24 1.29 1.29 1.23 1.39 1.44 1.31 1.46 1.62 1.67 1.64 1.48 1.44
0.28 0.28 0.33 0.37 0.40 0.45 0.52 0.58 0.72 0.91 1.12 1.31 1.47 1.53 1.50 1.49 1.53 1.60 1.58 1.42 1.37 1.24 1.31 1.35 1.40 1.38 1.35 1.34 1.38 1.31 1.36 1.50 1.50 1.44 1.48 1.50 1.45 1.51 1.62 1.76 1.83 1.82 1.76
0.28 0.27 0.27 0.29 0.29 0.32 0.44 0.55 0.61 0.75 1.08 1.38 1.51 1.38 1.32 1.21 1.29 1.32 1.35 1.40 1.39 1.36 1.37 1.35 1.37 1.42 1.42 1.39 1.45 1.44 1.50 1.65 1.66 1.71 1.78 1.71 1.60 1.66 1.70 1.75 1.89 2.03 2.04
0.30 0.29 0.24 0.23 0.28 0.28 0.38 0.56 0.67 0.82 1.10 1.40 1.56 1.50 1.33 1.27 1.31 1.23 1.18 1.28 1.33 1.34 1.35 1.29 1.27 1.24 1.28 1.43 1.56 1.53 1.58 1.63 1.68 1.70 1.66 1.61 1.62 1.65 1.56 1.61 1.72 1.89 2.04
0.24 0.23 0.17 0.18 0.21 0.24 0.35 0.66 0.96 1.31 1.47 1.70 1.92 1.87 1.52 1.32 1.24 1.08 1.02 1.11 1.26 1.33 1.33 1.27 1.23 1.20 1.30 1.48 1.57 1.65 1.81 1.90 1.83 1.73 1.63 1.51 1.53 1.58 1.56 1.64 1.64 1.70 1.93
0.25 0.26 0.19 0.19 0.20 0.21 0.26 0.42 0.57 0.90 1.21 1.52 1.77 1.70 1.42 1.20 1.12 1.07 1.05 1.14 1.26 1.31 1.30 1.30 1.35 1.44 1.55 1.68 1.75 1.81 1.96 1.95 1.82 1.75 1.62 1.49 1.51 1.51 1.60 1.70 1.67 1.63 1.67
0.32 0.28 0.25 0.24 0.23 0.24 0.24 0.34 0.43 0.52 0.70 1.08 1.33 1.33 1.19 1.11 1.06 1.09 1.10 1.08 1.11 1.18 1.25 1.42 1.63 1.76 1.83 1.87 1.92 1.92 1.87 1.82 1.68 1.56 1.46 1.46 1.55 1.60 1.61 1.55 1.53 1.55 1.63
0.30 0.24 0.26 0.34 0.37 0.40 0.37 0.38 0.43 0.46 0.61 0.97 1.17 1.13 1.07 1.04 1.00 0.97 1.03 1.08 1.15 1.21 1.39 1.55 1.68 1.69 1.72 1.78 1.88 1.86 1.79 1.70 1.56 1.43 1.24 1.19 1.39 1.51 1.53 1.41 1.46 1.50 1.53
0.33 0.29 0.26 0.35 0.41 0.44 0.45 0.44 0.45 0.48 0.59 0.84 1.04 1.05 0.99 0.93 0.88 0.91 1.02 1.19 1.28 1.39 1.53 1.58 1.56 1.51 1.27 1.31 1.43 1.49 1.50 1.49 1.41 1.29 1.21 1.17 1.21 1.19 1.17 1.15 1.17 1.23 1.32
0.35 0.28 0.29 0.38 0.52 0.50 0.52 0.55 0.51 0.50 0.63 0.83 0.99 1.07 1.04 1.05 1.01 0.99 1.15 1.35 1.45 1.53 1.58 1.57 1.52 1.44 1.40 1.30 1.17 1.14 1.19 1.27 1.27 1.27 1.30 1.10 0.99 1.08 1.08 1.13 1.08 1.00 1.02
0.43 0.41 0.38 0.43 0.53 0.52 0.55 0.59 0.58 0.60 0.72 0.89 1.05 1.11 1.08 1.14 1.22 1.23 1.32 1.52 1.70 1.73 1.70 1.68 1.60 1.56 1.52 1.40 1.20 1.08 1.04 1.20 1.26 1.25 1.27 1.25 1.19 1.17 1.24 1.26 1.19 1.06 0.99
0.53 0.57 0.59 0.55 0.58 0.60 0.62 0.63 0.67 0.73 0.84 0.91 1.05 1.15 1.23 1.35 1.39 1.43 1.58 1.77 1.90 1.84 1.80 1.82 1.80 1.77 1.74 1.54 1.24 1.11 1.12 1.30 1.34 1.34 1.33 1.32 1.28 1.27 1.14 1.12 1.15 1.14 1.10
0.56 0.58 0.64 0.67 0.70 0.71 0.74 0.80 0.86 0.98 1.13 1.21 1.28 1.46 1.66 1.84 1.92 1.96 2.02 2.04 2.10 1.99 1.94 1.88 1.84 1.79 1.79 1.71 1.31 1.14 1.17 1.38 1.44 1.50 1.47 1.34 1.22 1.17 1.04 1.03 1.16 1.12 1.07
0.52 0.58 0.61 0.68 0.71 0.74 0.89 1.05 1.12 1.23 1.36 1.48 1.55 1.76 2.09 2.26 2.22 2.21 2.17 2.12 2.14 2.13 2.10 2.02 1.98 1.94 1.88 1.82 1.43 1.26 1.31 1.47 1.57 1.56 1.51 1.45 1.30 1.10 1.02 0.96 0.99 1.01 0.99
0.50 0.55 0.59 0.62 0.72 0.84 1.06 1.32 1.41 1.39 1.47 1.65 1.85 2.07 2.32 2.29 2.18 2.33 2.27 2.25 2.31 2.29 2.19 2.14 2.07 2.06 2.02 1.87 1.58 1.35 1.40 1.55 1.67 1.73 1.68 1.58 1.35 1.10 1.00 0.91 0.87 0.81 0.75
0.51 0.56 0.61 0.70 0.79 0.96 1.28 1.55 1.62 1.66 1.69 1.82 1.98 2.09 2.20 2.38 2.50 2.54 2.46 2.39 2.36 2.32 2.17 2.08 1.98 1.92 1.98 1.98 1.56 1.30 1.35 1.44 1.50 1.66 1.68 1.42 1.18 1.03 0.88 0.83 0.81 0.72 0.67
0.52 0.59 0.66 0.80 0.98 1.14 1.40 1.54 1.59 1.62 1.65 1.67 1.70 1.82 2.01 2.15 2.23 2.45 2.53 2.46 2.33 2.27 2.22 2.11 1.98 1.91 1.95 1.94 1.61 1.30 1.27 1.32 1.31 1.40 1.47 1.35 1.17 1.03 0.91 0.85 0.81 0.76 0.78
0.53 0.63 0.72 0.82 0.95 1.12 1.29 1.33 1.44 1.52 1.62 1.61 1.58 1.61 1.65 1.78 1.87 1.99 2.12 2.13 2.15 1.98 1.88 1.76 1.70 1.71 1.76 1.73 1.47 1.29 1.29 1.41 1.46 1.42 1.44 1.46 1.33 1.19 1.08 1.04 1.07 1.08 1.04
0.52 0.62 0.74 0.84 0.94 1.08 1.26 1.32 1.41 1.49 1.55 1.54 1.49 1.50 1.52 1.61 1.69 1.74 1.70 1.55 1.50 1.34 1.21 1.17 1.13 1.14 1.20 1.30 1.15 1.03 1.12 1.28 1.33 1.27 1.30 1.41 1.40 1.32 1.23 1.17 1.17 1.16 1.10

GEFSMW_prec_meanprecacc_174.txt.gz
Total_Precipitation_Accumulation
1.84 2.21 2.54 2.97 3.40 3.92 4.61 5.18 5.54 5.48 5.24 4.85 4.46 4.16 3.67 3.33 3.02 2.69 2.48 2.23 1.97 1.87 2.07 1.88 1.98 2.00 1.93 1.76 1.73 1.81 1.81 1.59 1.87 2.07 1.66 1.26 1.06 0.95 0.82 0.81 0.86 0.79 0.84
1.78 2.10 2.60 2.89 3.21 3.67 4.16 4.55 4.50 4.17 4.02 3.96 3.83 3.55 3.54 3.39 3.17 2.94 2.68 2.27 2.05 1.88 1.72 1.79 1.71 1.71 1.77 1.58 1.48 1.62 1.62 1.40 1.64 1.76 1.70 1.27 1.07 0.90 0.63 0.67 0.69 0.77 0.95
1.40 1.71 2.26 2.56 2.71 3.07 3.37 3.42 3.29 3.07 3.06 3.10 3.02 3.06 3.27 3.30 3.20 3.01 2.73 2.43 2.26 2.12 1.95 1.79 1.63 1.57 1.48 1.46 1.42 1.49 1.53 1.44 1.38 1.42 1.58 1.28 1.00 0.84 0.60 0.54 0.60 0.81 1.00
1.10 1.38 1.72 1.90 2.13 2.29 2.44 2.48 2.52 2.48 2.46 2.50 2.42 2.30 2.34 2.48 2.64 2.85 2.87 2.83 2.61 2.35 2.09 1.90 1.66 1.43 1.30 1.41 1.20 1.25 1.44 1.52 1.30 1.23 1.21 1.19 1.26 1.20 0.88 0.59 0.51 0.73 0.85
1.08 1.23 1.30 1.43 1.58 1.58 1.73 1.80 2.07 2.34 2.41 2.39 2.44 2.30 2.04 1.97 2.00 2.13 2.26 2.25 2.23 2.09 1.84 1.72 1.61 1.37 1.19 1.19 1.18 1.32 1.33 1.33 1.25 1.22 1.18 1.24 1.35 1.28 1.17 0.90 0.76 0.77 0.68
0.82 0.96 1.09 1.20 1.23 1.21 1.37 1.58 1.87 2.22 2.41 2.45 2.39 2.29 2.14 2.08 1.96 1.90 1.87 1.74 1.77 1.74 1.63 1.53 1.49 1.32 1.20 1.20 1.17 1.24 1.28 1.32 1.35 1.34 1.30 1.33 1.32 1.33 1.44 1.25 1.07 0.98 0.79
0.58 0.60 0.72 0.84 0.85 0.87 0.97 1.21 1.44 1.66 1.85 1.99 1.99 1.88 1.94 2.05 1.91 1.74 1.60 1.47 1.38 1.36 1.38 1.44 1.46 1.34 1.27 1.31 1.39 1.36 1.27 1.29 1.36 1.34 1.39 1.43 1.36 1.42 1.56 1.52 1.30 1.18 1.10
0.39 0.37 0.43 0.53 0.63 0.65 0.68 0.81 1.07 1.26 1.44 1.56 1.67 1.76 1.91 2.01 1.94 2.01 1.78 1.57 1.36 1.25 1.28 1.44 1.49 1.41 1.32 1.25 1.40 1.36 1.36 1.39 1.38 1.31 1.50 1.55 1.39 1.53 1.69 1.76 1.74 1.58 1.52
0.28 0.28 0.33 0.37 0.41 0.46 0.53 0.59 0.75 0.94 1.16 1.35 1.50 1.58 1.56 1.57 1.65 1.76 1.72 1.56 1.51 1.36 1.40 1.44 1.53 1.56 1.57 1.52 1.54 1.44 1.47 1.61 1.61 1.53 1.58 1.61 1.54 1.59 1.70 1.84 1.94 1.95 1.86
0.28 0.27 0.27 0.29 0.29 0.33 0.45 0.56 0.63 0.77 1.10 1.41 1.55 1.45 1.40 1.30 1.40 1.45 1.46 1.50 1.49 1.48 1.48 1.44 1.46 1.54 1.57 1.55 1.60 1.58 1.62 1.77 1.79 1.83 1.91 1.84 1.70 1.76 1.79 1.84 2.00 2.15 2.17
0.30 0.29 0.24 0.23 0.28 0.28 0.38 0.57 0.69 0.84 1.12 1.42 1.60 1.55 1.39 1.34 1.41 1.32 1.27 1.37 1.43 1.45 1.46 1.41 1.37 1.34 1.40 1.56 1.70 1.67 1.71 1.77 1.82 1.84 1.79 1.75 1.79 1.83 1.73 1.77 1.86 2.02 2.18
0.24 0.23 0.17 0.18 0.21 0.24 0.35 0.67 0.98 1.32 1.49 1.72 1.94 1.91 1.58 1.41 1.32 1.14 1.09 1.21 1.37 1.43 1.43 1.39 1.33 1.29 1.39 1.61 1.73 1.78 1.93 2.01 1.95 1.86 1.78 1.68 1.73 1.78 1.73 1.79 1.77 1.83 2.07
0.25 0.26 0.19 0.19 0.20 0.21 0.27 0.44 0.59 0.92 1.23 1.53 1.79 1.73 1.46 1.28 1.20 1.13 1.12 1.21 1.34 1.39 1.41 1.42 1.45 1.54 1.65 1.81 1.89 1.94 2.08 2.07 1.97 1.94 1.82 1.71 1.72 1.70 1.77 1.84 1.81 1.77 1.82
0.32 0.28 0.26 0.24 0.23 0.25 0.25 0.36 0.45 0.53 0.72 1.09 1.35 1.36 1.23 1.15 1.11 1.14 1.15 1.15 1.17 1.23 1.31 1.50 1.73 1.87 1.95 1.99 2.04 2.05 2.02 1.98 1.84 1.72 1.62 1.61 1.69 1.74 1.73 1.66 1.65 1.68 1.78
0.31 0.25 0.26 0.35 0.38 0.41 0.38 0.39 0.43 0.47 0.63 1.00 1.19 1.18 1.13 1.09 1.04 1.01 1.07 1.14 1.21 1.27 1.45 1.62 1.75 1.76 1.79 1.85 1.97 1.98 1.92 1.84 1.71 1.57 1.36 1.30 1.50 1.62 1.64 1.52 1.58 1.63 1.68
0.34 0.29 0.27 0.36 0.42 0.45 0.46 0.45 0.46 0.49 0.61 0.88 1.08 1.09 1.03 0.98 0.91 0.94 1.06 1.23 1.33 1.45 1.60 1.64 1.62 1.56 1.32 1.38 1.50 1.57 1.60 1.59 1.53 1.40 1.30 1.26 1.29 1.29 1.27 1.25 1.26 1.33 1.43
0.36 0.29 0.30 0.40 0.53 0.51 0.53 0.56 0.52 0.51 0.64 0.86 1.02 1.09 1.06 1.08 1.04 1.01 1.18 1.38 1.51 1.59 1.66 1.65 1.58 1.49 1.45 1.34 1.22 1.20 1.26 1.36 1.37 1.37 1.39 1.19 1.07 1.18 1.17 1.22 1.16 1.10 1.14
0.44 0.42 0.39 0.44 0.54 0.53 0.56 0.60 0.58 0.61 0.73 0.90 1.07 1.14 1.10 1.16 1.24 1.26 1.35 1.57 1.75 1.80 1.79 1.77 1.71 1.68 1.62 1.50 1.29 1.19 1.15 1.31 1.37 1.37 1.40 1.38 1.32 1.29 1.35 1.36 1.29 1.17 1.13
0.53 0.57 0.60 0.57 0.59 0.61 0.64 0.65 0.68 0.74 0.86 0.93 1.06 1.17 1.24 1.36 1.41 1.45 1.62 1.81 1.93 1.91 1.86 1.88 1.86 1.84 1.84 1.67 1.36 1.22 1.23 1.42 1.46 1.47 1.46 1.44 1.39 1.38 1.25 1.22 1.25 1.25 1.22
0.57 0.59 0.67 0.70 0.72 0.72 0.76 0.81 0.87 1.00 1.15 1.23 1.29 1.47 1.67 1.85 1.94 1.98 2.04 2.07 2.12 2.01 1.96 1.91 1.89 1.84 1.85 1.78 1.36 1.17 1.21 1.42 1.49 1.56 1.53 1.42 1.29 1.24 1.11 1.10 1.24 1.23 1.20
0.53 0.59 0.63 0.71 0.74 0.77 0.91 1.07 1.13 1.24 1.37 1.49 1.56 1.77 2.09 2.27 2.24 2.23 2.19 2.14 2.15 2.15 2.12 2.04 2.01 1.98 1.92 1.86 1.46 1.29 1.33 1.50 1.60 1.59 1.55 1.49 1.35 1.15 1.08 1.02 1.06 1.10 1.09
0.51 0.57 0.61 0.66 0.76 0.88 1.09 1.34 1.42 1.40 1.48 1.67 1.87 2.09 2.33 2.30 2.20 2.35 2.29 2.27 2.33 2.31 2.21 2.16 2.09 2.09 2.04 1.89 1.60 1.37 1.43 1.58 1.70 1.76 1.71 1.61 1.39 1.15 1.05 0.96 0.93 0.88 0.83
0.52 0.57 0.63 0.73 0.82 1.00 1.32 1.58 1.64 1.68 1.71 1.83 2.00 2.11 2.22 2.40 2.54 2.59 2.51 2.42 2.38 2.34 2.19 2.11 1.99 1.93 1.99 2.00 1.58 1.33 1.39 1.48 1.53 1.70 1.71 1.44 1.21 1.06 0.91 0.87 0.85 0.76 0.71
0.54 0.60 0.68 0.82 1.00 1.16 1.44 1.58 1.62 1.64 1.67 1.69 1.71 1.84 2.02 2.18 2.27 2.49 2.56 2.48 2.34 2.28 2.24 2.12 1.99 1.92 1.95 1.96 1.63 1.32 1.30 1.36 1.36 1.44 1.50 1.36 1.18 1.05 0.94 0.88 0.84 0.79 0.80
0.56 0.65 0.74 0.85 0.97 1.13 1.31 1.35 1.46 1.55 1.65 1.63 1.59 1.61 1.66 1.78 1.88 2.00 2.13 2.14 2.16 1.99 1.89 1.77 1.71 1.71 1.77 1.73 1.49 1.31 1.31 1.43 1.48 1.44 1.46 1.46 1.33 1.20 1.09 1.06 1.09 1.09 1.04
0.55 0.65 0.76 0.87 0.96 1.09 1.28 1.34 1.43 1.52 1.58 1.56 1.50 1.52 1.54 1.62 1.70 1.74 1.71 1.56 1.50 1.35 1.22 1.18 1.13 1.15 1.21 1.31 1.16 1.04 1.14 1.29 1.35 1.28 1.31 1.42 1.40 1.32 1.24 1.18 1.18 1.16 1.11

GEFSMW_prec_meanprecacc_180.txt.gz
Total_Precipitation_Accumulation
1.84 2.21 2.54 2.97 3.40 3.92 4.63 5.21 5.57 5.50 5.27 4.90 4.51 4.21 3.73 3.40 3.10 2.76 2.52 2.28 2.02 1.92 2.14 1.97 2.11 2.08 2.00 1.83 1.80 1.89 1.89 1.67 1.93 2.13 1.72 1.29 1.07 0.96 0.84 0.82 0.88 0.81 0.87
1.78 2.10 2.60 2.89 3.21 3.69 4.18 4.58 4.53 4.20 4.06 4.00 3.88 3.61 3.62 3.46 3.27 3.04 2.78 2.36 2.14 1.97 1.81 1.90 1.81 1.79 1.85 1.65 1.55 1.70 1.71 1.49 1.74 1.87 1.85 1.36 1.13 0.94 0.65 0.69 0.71 0.79 0.98
1.40 1.72 2.26 2.56 2.71 3.09 3.38 3.44 3.32 3.11 3.12 3.15 3.07 3.11 3.33 3.38 3.32 3.15 2.88 2.58 2.38 2.21 2.05 1.89 1.73 1.69 1.57 1.55 1.51 1.57 1.60 1.53 1.48 1.53 1.70 1.39 1.11 0.94 0.64 0.56 0.62 0.84 1.05
1.10 1.38 1.72 1.90 2.14 2.30 2.45 2.50 2.55 2.54 2.52 2.54 2.46 2.36 2.41 2.56 2.77 3.00 3.05 3.01 2.79 2.49 2.20 1.99 1.78 1.56 1.41 1.53 1.29 1.36 1.55 1.63 1.40 1.35 1.31 1.26 1.37 1.36 1.03 0.69 0.56 0.78 0.90
1.09 1.23 1.30 1.44 1.58 1.58 1.73 1.81 2.09 2.37 2.43 2.41 2.47 2.36 2.12 2.09 2.14 2.28 2.42 2.43 2.42 2.28 2.00 1.86 1.76 1.51 1.31 1.30 1.31 1.48 1.46 1.44 1.34 1.35 1.32 1.39 1.51 1.39 1.30 1.04 0.88 0.87 0.76
0.83 0.99 1.14 1.20 1.24 1.21 1.37 1.58 1.89 2.24 2.43 2.48 2.43 2.34 2.25 2.21 2.08 2.04 2.03 1.91 1.94 1.93 1.80 1.67 1.62 1.46 1.32 1.31 1.27 1.36 1.41 1.45 1.48 1.46 1.44 1.49 1.45 1.44 1.59 1.40 1.21 1.10 0.89
0.61 0.61 0.75 0.86 0.85 0.88 0.98 1.23 1.46 1.69 1.89 2.03 2.03 1.93 2.04 2.16 2.03 1.88 1.76 1.65 1.55 1.50 1.51 1.57 1.59 1.44 1.37 1.40 1.50 1.47 1.40 1.43 1.51 1.48 1.53 1.56 1.48 1.56 1.71 1.68 1.45 1.33 1.21
0.40 0.37 0.43 0.53 0.63 0.66 0.69 0.82 1.10 1.29 1.48 1.61 1.73 1.82 1.98 2.11 2.07 2.19 1.95 1.75 1.52 1.40 1.45 1.60 1.63 1.52 1.42 1.36 1.54 1.51 1.52 1.58 1.56 1.47 1.67 1.69 1.52 1.67 1.86 1.93 1.92 1.75 1.67
0.28 0.28 0.33 0.37 0.41 0.46 0.53 0.60 0.76 0.98 1.20 1.39 1.56 1.63 1.61 1.64 1.77 1.94 1.91 1.75 1.67 1.51 1.58 1.62 1.72 1.74 1.74 1.69 1.72 1.62 1.66 1.83 1.82 1.75 1.80 1.80 1.70 1.75 1.86 2.01 2.12 2.14 2.05
0.28 0.27 0.28 0.30 0.31 0.33 0.45 0.57 0.64 0.80 1.12 1.44 1.60 1.50 1.47 1.37 1.50 1.57 1.61 1.67 1.64 1.63 1.65 1.63 1.66 1.71 1.75 1.74 1.80 1.78 1.83 1.98 1.98 2.03 2.12 2.05 1.88 1.92 1.95 2.02 2.17 2.33 2.37
0.31 0.30 0.27 0.28 0.32 0.29 0.38 0.57 0.70 0.86 1.15 1.46 1.64 1.61 1.45 1.41 1.49 1.42 1.40 1.52 1.57 1.57 1.60 1.59 1.55 1.51 1.56 1.73 1.87 1.85 1.93 2.00 2.03 2.03 2.01 1.95 1.97 2.03 1.92 1.98 2.07 2.21 2.38
0.25 0.24 0.20 0.24 0.24 0.24 0.36 0.68 0.99 1.34 1.51 1.75 1.97 1.96 1.66 1.49 1.40 1.23 1.20 1.34 1.50 1.54 1.55 1.54 1.50 1.45 1.54 1.76 1.88 1.94 2.13 2.20 2.12 2.04 1.99 1.88 1.95 2.03 1.97 2.00 1.96 2.02 2.27
0.25 0.26 0.20 0.23 0.21 0.22 0.28 0.45 0.60 0.93 1.25 1.55 1.80 1.76 1.51 1.34 1.28 1.23 1.23 1.36 1.47 1.49 1.49 1.52 1.57 1.68 1.79 1.95 2.04 2.10 2.22 2.20 2.11 2.11 2.03 1.90 1.93 1.91 1.98 2.03 2.01 1.96 2.01
0.32 0.29 0.26 0.25 0.24 0.27 0.27 0.37 0.46 0.54 0.73 1.11 1.38 1.39 1.27 1.20 1.19 1.23 1.24 1.24 1.26 1.32 1.38 1.57 1.81 1.97 2.07 2.13 2.18 2.17 2.15 2.11 1.98 1.88 1.78 1.77 1.85 1.92 1.93 1.85 1.85 1.87 1.94
0.32 0.26 0.27 0.36 0.39 0.43 0.40 0.40 0.45 0.49 0.65 1.02 1.22 1.21 1.17 1.15 1.11 1.09 1.17 1.23 1.30 1.35 1.53 1.71 1.83 1.85 1.88 1.94 2.06 2.07 2.03 1.97 1.84 1.70 1.49 1.44 1.64 1.76 1.77 1.63 1.71 1.77 1.81
0.34 0.30 0.28 0.37 0.44 0.47 0.48 0.47 0.48 0.52 0.65 0.90 1.10 1.12 1.08 1.05 1.00 1.03 1.14 1.30 1.40 1.53 1.68 1.72 1.70 1.64 1.40 1.47 1.59 1.65 1.69 1.69 1.64 1.50 1.41 1.38 1.41 1.37 1.35 1.32 1.33 1.41 1.52
0.37 0.30 0.31 0.42 0.55 0.53 0.55 0.59 0.55 0.55 0.68 0.89 1.05 1.14 1.12 1.13 1.10 1.09 1.26 1.44 1.59 1.69 1.73 1.73 1.64 1.55 1.52 1.42 1.29 1.27 1.33 1.44 1.46 1.47 1.52 1.31 1.17 1.27 1.25 1.30 1.25 1.20 1.24
0.44 0.43 0.40 0.46 0.55 0.54 0.57 0.62 0.61 0.63 0.75 0.93 1.12 1.20 1.16 1.20 1.29 1.32 1.41 1.62 1.81 1.88 1.85 1.83 1.76 1.74 1.68 1.56 1.33 1.23 1.20 1.38 1.44 1.45 1.48 1.47 1.40 1.38 1.44 1.46 1.38 1.24 1.20
0.55 0.58 0.61 0.58 0.60 0.62 0.65 0.66 0.71 0.77 0.87 0.94 1.09 1.20 1.27 1.37 1.43 1.48 1.65 1.85 2.00 1.98 1.93 1.95 1.92 1.89 1.89 1.71 1.39 1.25 1.26 1.45 1.50 1.50 1.48 1.46 1.42 1.44 1.30 1.27 1.29 1.28 1.25
0.58 0.59 0.68 0.71 0.73 0.74 0.77 0.83 0.90 1.02 1.16 1.24 1.30 1.48 1.69 1.87 1.95 2.00 2.06 2.09 2.15 2.06 2.02 1.99 1.96 1.91 1.91 1.83 1.39 1.19 1.22 1.43 1.50 1.57 1.55 1.43 1.31 1.28 1.15 1.14 1.27 1.26 1.23
0.54 0.60 0.64 0.72 0.76 0.80 0.93 1.09 1.16 1.26 1.38 1.49 1.57 1.79 2.12 2.30 2.27 2.26 2.21 2.17 2.18 2.18 2.15 2.08 2.06 2.02 1.96 1.89 1.49 1.30 1.34 1.51 1.60 1.60 1.56 1.50 1.36 1.17 1.11 1.05 1.09 1.13 1.12
0.53 0.59 0.62 0.68 0.80 0.92 1.14 1.38 1.46 1.42 1.49 1.68 1.88 2.11 2.37 2.32 2.22 2.37 2.31 2.30 2.36 2.33 2.24 2.18 2.11 2.11 2.06 1.90 1.61 1.38 1.43 1.58 1.70 1.77 1.73 1.63 1.41 1.17 1.06 0.98 0.95 0.90 0.84
0.54 0.59 0.64 0.75 0.86 1.06 1.40 1.64 1.67 1.70 1.73 1.86 2.03 2.14 2.25 2.43 2.57 2.62 2.55 2.47 2.43 2.38 2.22 2.12 2.01 1.94 2.00 2.01 1.59 1.33 1.39 1.48 1.53 1.70 1.73 1.46 1.23 1.08 0.93 0.89 0.87 0.78 0.72
0.56 0.62 0.70 0.86 1.04 1.22 1.51 1.65 1.67 1.70 1.71 1.73 1.75 1.87 2.06 2.22 2.31 2.53 2.60 2.51 2.36 2.30 2.25 2.14 2.00 1.93 1.96 1.96 1.63 1.32 1.30 1.37 1.37 1.45 1.52 1.39 1.21 1.07 0.96 0.90 0.85 0.80 0.81
0.57 0.67 0.78 0.89 1.01 1.17 1.34 1.40 1.52 1.61 1.69 1.66 1.62 1.65 1.69 1.81 1.90 2.02 2.14 2.15 2.17 2.00 1.89 1.78 1.72 1.72 1.77 1.74 1.49 1.31 1.31 1.43 1.49 1.45 1.47 1.48 1.35 1.21 1.10 1.07 1.10 1.10 1.05
0.57 0.68 0.80 0.92 1.01 1.14 1.32 1.38 1.48 1.56 1.62 1.59 1.52 1.54 1.55 1.63 1.70 1.75 1.71 1.57 1.51 1.36 1.22 1.18 1.13 1.15 1.21 1.31 1.16 1.04 1.14 1.29 1.35 1.28 1.31 1.42 1.41 1.33 1.25 1.19 1.19 1.17 1.11

GEFSMW_prec_meanprecacc_186.txt.gz
Total_Precipitation_Accumulation
1.84 2.22 2.55 2.99 3.43 3.94 4.65 5.23 5.58 5.51 5.28 4.92 4.53 4.22 3.74 3.42 3.13 2.81 2.57 2.34 2.08 1.98 2.20 2.05 2.25 2.18 2.05 1.89 1.86 1.95 1.95 1.72 1.98 2.18 1.76 1.33 1.11 1.00 0.86 0.85 0.91 0.85 0.91
1.78 2.11 2.61 2.91 3.23 3.71 4.20 4.60 4.54 4.21 4.07 4.01 3.89 3.62 3.64 3.50 3.32 3.09 2.84 2.45 2.24 2.05 1.90 2.00 1.88 1.84 1.90 1.70 1.59 1.75 1.75 1.53 1.81 1.93 1.89 1.40 1.19 0.99 0.69 0.74 0.75 0.84 1.03
1.41 1.73 2.27 2.58 2.74 3.12 3.42 3.47 3.35 3.13 3.13 3.17 3.09 3.14 3.39 3.44 3.38 3.21 2.95 2.66 2.49 2.33 2.16 1.99 1.80 1.75 1.63 1.61 1.57 1.63 1.65 1.56 1.53 1.59 1.74 1.43 1.14 0.97 0.68 0.59 0.67 0.90 1.14
1.16 1.44 1.77 1.96 2.18 2.34 2.49 2.53 2.58 2.57 2.54 2.56 2.49 2.40 2.47 2.62 2.83 3.06 3.10 3.08 2.86 2.59 2.30 2.10 1.86 1.63 1.48 1.59 1.34 1.42 1.62 1.68 1.44 1.40 1.38 1.31 1.41 1.39 1.06 0.73 0.64 0.87 1.02
1.17 1.39 1.47 1.56 1.64 1.63 1.77 1.86 2.13 2.40 2.46 2.45 2.52 2.42 2.19 2.16 2.20 2.33 2.47 2.49 2.50 2.37 2.10 1.97 1.86 1.61 1.41 1.39 1.37 1.54 1.52 1.50 1.40 1.42 1.41 1.48 1.59 1.45 1.34 1.08 0.95 0.96 0.88
0.90 1.12 1.34 1.38 1.33 1.27 1.43 1.65 1.94 2.30 2.49 2.53 2.49 2.41 2.33 2.28 2.16 2.11 2.12 2.01 2.03 2.01 1.90 1.78 1.75 1.58 1.42 1.40 1.36 1.44 1.49 1.53 1.57 1.55 1.51 1.57 1.53 1.51 1.65 1.45 1.24 1.15 0.96
0.66 0.67 0.83 1.04 1.03 1.00 1.12 1.38 1.55 1.79 1.97 2.09 2.10 2.01 2.12 2.24 2.10 1.95 1.83 1.73 1.61 1.56 1.60 1.68 1.71 1.56 1.47 1.49 1.58 1.56 1.48 1.54 1.61 1.56 1.62 1.67 1.60 1.68 1.81 1.76 1.50 1.37 1.26
0.45 0.43 0.48 0.61 0.82 0.84 0.87 0.97 1.21 1.37 1.54 1.66 1.77 1.87 2.03 2.15 2.10 2.23 2.01 1.83 1.57 1.46 1.51 1.68 1.72 1.61 1.52 1.46 1.65 1.60 1.59 1.66 1.64 1.56 1.78 1.82 1.64 1.81 2.02 2.09 2.06 1.84 1.74
0.34 0.33 0.40 0.59 0.60 0.59 0.62 0.73 0.94 1.06 1.24 1.43 1.61 1.68 1.65 1.67 1.80 1.97 1.96 1.81 1.74 1.59 1.65 1.70 1.80 1.85 1.87 1.83 1.86 1.74 1.76 1.92 1.92 1.86 1.95 1.96 1.85 1.90 2.00 2.17 2.29 2.28 2.17
0.34 0.32 0.35 0.43 0.43 0.41 0.53 0.73 0.86 0.89 1.17 1.48 1.64 1.54 1.51 1.42 1.56 1.63 1.67 1.73 1.71 1.70 1.73 1.71 1.74 1.84 1.88 1.88 1.96 1.93 1.99 2.15 2.13 2.17 2.25 2.18 1.98 2.02 2.06 2.14 2.31 2.49 2.51
0.38 0.37 0.37 0.38 0.45 0.40 0.47 0.63 0.78 0.93 1.19 1.50 1.68 1.64 1.49 1.46 1.56 1.49 1.47 1.60 1.66 1.66 1.70 1.68 1.63 1.60 1.69 1.85 2.01 2.00 2.11 2.21 2.24 2.22 2.16 2.08 2.10 2.16 2.06 2.12 2.22 2.37 2.53
0.31 0.29 0.26 0.30 0.30 0.29 0.40 0.72 1.06 1.40 1.54 1.77 1.99 1.98 1.68 1.52 1.44 1.29 1.29 1.48 1.66 1.69 1.66 1.64 1.59 1.53 1.61 1.84 1.99 2.09 2.31 2.40 2.30 2.21 2.15 2.04 2.12 2.21 2.14 2.15 2.10 2.15 2.40
0.30 0.30 0.25 0.31 0.27 0.26 0.32 0.49 0.65 0.98 1.29 1.58 1.82 1.77 1.53 1.37 1.32 1.31 1.35 1.51 1.63 1.62 1.58 1.60 1.64 1.74 1.86 2.02 2.15 2.25 2.39 2.37 2.25 2.23 2.14 2.02 2.05 2.04 2.11 2.15 2.11 2.06 2.10
0.37 0.35 0.32 0.29 0.28 0.30 0.30 0.40 0.49 0.57 0.76 1.14 1.40 1.41 1.29 1.23 1.25 1.32 1.34 1.33 1.35 1.41 1.46 1.64 1.86 2.02 2.13 2.21 2.27 2.27 2.23 2.21 2.10 2.01 1.91 1.87 1.95 2.00 2.02 1.95 1.92 1.93 2.00
0.38 0.36 0.35 0.40 0.42 0.46 0.42 0.42 0.46 0.51 0.66 1.04 1.25 1.22 1.20 1.20 1.17 1.17 1.24 1.30 1.36 1.43 1.62 1.78 1.88 1.89 1.93 2.00 2.13 2.13 2.08 2.03 1.93 1.82 1.63 1.59 1.78 1.86 1.86 1.73 1.80 1.86 1.89
0.40 0.38 0.32 0.40 0.48 0.50 0.50 0.49 0.49 0.54 0.67 0.93 1.14 1.15 1.13 1.11 1.05 1.09 1.19 1.36 1.46 1.61 1.77 1.80 1.77 1.71 1.47 1.54 1.65 1.72 1.75 1.74 1.68 1.56 1.49 1.50 1.54 1.48 1.45 1.44 1.43 1.50 1.59
0.39 0.32 0.34 0.47 0.66 0.60 0.58 0.62 0.59 0.59 0.72 0.91 1.06 1.16 1.14 1.15 1.13 1.12 1.29 1.47 1.63 1.77 1.88 1.86 1.76 1.64 1.58 1.47 1.34 1.33 1.38 1.48 1.50 1.51 1.57 1.38 1.25 1.34 1.32 1.36 1.31 1.24 1.29
0.47 0.46 0.44 0.50 0.58 0.57 0.60 0.66 0.66 0.67 0.77 0.95 1.14 1.22 1.17 1.22 1.32 1.35 1.44 1.66 1.88 2.01 2.01 1.94 1.84 1.80 1.75 1.64 1.41 1.30 1.25 1.41 1.47 1.47 1.51 1.50 1.43 1.42 1.48 1.49 1.40 1.27 1.22
0.58 0.61 0.65 0.62 0.66 0.70 0.71 0.72 0.78 0.81 0.90 0.97 1.12 1.21 1.28 1.39 1.45 1.51 1.68 1.89 2.06 2.07 2.00 2.03 1.99 1.96 1.98 1.80 1.46 1.29 1.29 1.49 1.53 1.52 1.50 1.48 1.44 1.48 1.35 1.29 1.30 1.29 1.26
0.66 0.65 0.72 0.76 0.80 0.84 0.89 0.89 0.95 1.06 1.20 1.28 1.33 1.51 1.70 1.88 1.98 2.04 2.10 2.13 2.18 2.08 2.04 2.04 2.06 2.02 2.02 1.91 1.44 1.23 1.26 1.46 1.51 1.58 1.56 1.46 1.33 1.30 1.17 1.15 1.28 1.27 1.25
0.61 0.65 0.68 0.77 0.81 0.85 0.98 1.13 1.20 1.30 1.42 1.55 1.62 1.82 2.14 2.33 2.33 2.33 2.28 2.21 2.21 2.21 2.18 2.11 2.09 2.06 2.00 1.92 1.51 1.32 1.35 1.51 1.61 1.61 1.58 1.52 1.38 1.18 1.12 1.06 1.10 1.14 1.13
0.56 0.61 0.67 0.73 0.85 0.98 1.20 1.46 1.54 1.50 1.58 1.74 1.92 2.13 2.38 2.36 2.28 2.45 2.39 2.36 2.41 2.37 2.27 2.20 2.13 2.12 2.07 1.91 1.62 1.38 1.44 1.58 1.70 1.77 1.73 1.63 1.41 1.17 1.07 0.98 0.95 0.91 0.85
0.55 0.61 0.67 0.79 0.90 1.11 1.47 1.73 1.76 1.82 1.85 1.95 2.07 2.16 2.27 2.46 2.61 2.67 2.59 2.51 2.48 2.42 2.25 2.15 2.02 1.96 2.01 2.02 1.60 1.34 1.40 1.49 1.53 1.70 1.73 1.46 1.23 1.08 0.93 0.89 0.88 0.78 0.73
0.57 0.64 0.73 0.89 1.08 1.26 1.56 1.71 1.75 1.81 1.87 1.87 1.83 1.91 2.08 2.24 2.33 2.57 2.63 2.54 2.39 2.34 2.28 2.16 2.02 1.95 1.98 1.98 1.65 1.33 1.31 1.38 1.37 1.46 1.52 1.39 1.21 1.07 0.96 0.90 0.86 0.80 0.81
0.58 0.69 0.81 0.92 1.04 1.20 1.38 1.47 1.64 1.74 1.84 1.80 1.71 1.71 1.72 1.83 1.93 2.04 2.16 2.17 2.18 2.02 1.91 1.79 1.73 1.73 1.78 1.75 1.50 1.32 1.32 1.43 1.49 1.45 1.47 1.48 1.35 1.21 1.10 1.07 1.10 1.10 1.05
0.59 0.71 0.84 0.95 1.05 1.19 1.38 1.45 1.58 1.67 1.71 1.66 1.58 1.58 1.58 1.64 1.72 1.76 1.72 1.57 1.52 1.37 1.23 1.19 1.14 1.16 1.21 1.31 1.16 1.05 1.14 1.29 1.35 1.28 1.31 1.42 1.41 1.33 1.25 1.19 1.19 1.17 1.11

GEFSMW_prec_meanprecacc_192.txt.gz
Total_Precipitation_Accumulation
1.85 2.23 2.58 3.02 3.45 3.96 4.67 5.25 5.61 5.55 5.34 4.96 4.56 4.25 3.77 3.46 3.19 2.88 2.63 2.40 2.15 2.05 2.29 2.12 2.33 2.26 2.11 1.94 1.92 2.01 1.99 1.76 2.03 2.22 1.79 1.36 1.13 1.01 0.87 0.87 0.93 0.87 0.94
1.79 2.13 2.64 2.94 3.26 3.73 4.24 4.64 4.59 4.30 4.15 4.06 3.93 3.66 3.68 3.56 3.39 3.16 2.90 2.51 2.33 2.15 2.00 2.10 1.98 1.94 1.98 1.77 1.66 1.81 1.79 1.56 1.85 1.96 1.92 1.42 1.20 1.00 0.70 0.76 0.79 0.86 1.06
1.44 1.76 2.31 2.61 2.77 3.18 3.50 3.54 3.43 3.24 3.25 3.24 3.15 3.21 3.46 3.51 3.43 3.27 3.00 2.72 2.57 2.42 2.26 2.09 1.91 1.84 1.71 1.69 1.64 1.69 1.72 1.63 1.59 1.65 1.79 1.45 1.15 0.98 0.69 0.61 0.68 0.92 1.17
1.19 1.47 1.80 2.01 2.24 2.42 2.58 2.59 2.66 2.66 2.64 2.65 2.60 2.51 2.55 2.67 2.88 3.12 3.16 3.12 2.92 2.66 2.39 2.18 1.95 1.73 1.58 1.68 1.41 1.49 1.69 1.75 1.50 1.48 1.44 1.36 1.44 1.41 1.07 0.75 0.66 0.89 1.05
1.22 1.41 1.50 1.62 1.71 1.74 1.86 1.92 2.20 2.48 2.56 2.58 2.66 2.54 2.25 2.20 2.25 2.39 2.54 2.56 2.57 2.45 2.16 2.04 1.96 1.75 1.56 1.51 1.46 1.60 1.58 1.56 1.47 1.49 1.48 1.57 1.66 1.50 1.37 1.09 0.96 0.98 0.91
0.93 1.15 1.37 1.41 1.38 1.36 1.52 1.72 2.01 2.36 2.57 2.62 2.57 2.47 2.38 2.33 2.21 2.17 2.20 2.11 2.10 2.07 1.97 1.88 1.85 1.71 1.56 1.52 1.47 1.54 1.59 1.62 1.65 1.62 1.58 1.64 1.60 1.60 1.74 1.52 1.31 1.22 1.04
0.69 0.69 0.86 1.08 1.06 1.03 1.16 1.44 1.62 1.87 2.07 2.17 2.17 2.07 2.16 2.28 2.15 2.00 1.90 1.80 1.68 1.63 1.66 1.74 1.80 1.66 1.57 1.63 1.73 1.68 1.59 1.63 1.69 1.64 1.69 1.73 1.66 1.74 1.88 1.84 1.60 1.46 1.35
0.50 0.47 0.53 0.66 0.87 0.88 0.91 1.03 1.27 1.44 1.61 1.70 1.82 1.91 2.06 2.18 2.13 2.26 2.05 1.87 1.62 1.51 1.57 1.73 1.78 1.68 1.60 1.55 1.77 1.74 1.72 1.75 1.72 1.63 1.85 1.88 1.69 1.86 2.07 2.17 2.15 1.92 1.82
0.39 0.39 0.46 0.64 0.65 0.63 0.67 0.77 0.98 1.12 1.28 1.47 1.65 1.72 1.69 1.70 1.81 1.98 1.98 1.83 1.77 1.62 1.70 1.74 1.85 1.90 1.92 1.90 1.97 1.89 1.90 2.03 2.01 1.95 2.03 2.03 1.92 1.96 2.07 2.25 2.38 2.38 2.25
0.37 0.38 0.41 0.48 0.48 0.46 0.57 0.77 0.92 0.95 1.21 1.52 1.68 1.59 1.56 1.45 1.58 1.64 1.68 1.75 1.73 1.73 1.77 1.76 1.79 1.89 1.95 1.96 2.04 2.01 2.08 2.26 2.27 2.32 2.39 2.28 2.07 2.11 2.14 2.22 2.40 2.59 2.61
0.42 0.43 0.42 0.41 0.51 0.45 0.50 0.65 0.79 0.94 1.22 1.53 1.71 1.69 1.54 1.51 1.61 1.52 1.50 1.64 1.71 1.70 1.74 1.74 1.70 1.67 1.75 1.92 2.07 2.06 2.20 2.31 2.36 2.37 2.30 2.20 2.21 2.26 2.16 2.23 2.33 2.50 2.67
0.35 0.33 0.29 0.33 0.32 0.31 0.42 0.73 1.07 1.42 1.57 1.80 2.02 2.00 1.71 1.55 1.46 1.32 1.33 1.54 1.74 1.77 1.74 1.71 1.66 1.60 1.66 1.89 2.04 2.16 2.39 2.49 2.41 2.32 2.27 2.16 2.26 2.34 2.26 2.26 2.21 2.26 2.51
0.33 0.34 0.29 0.35 0.29 0.28 0.34 0.51 0.68 1.01 1.32 1.61 1.85 1.79 1.54 1.38 1.34 1.34 1.40 1.56 1.69 1.69 1.63 1.64 1.69 1.79 1.90 2.06 2.19 2.30 2.44 2.41 2.30 2.31 2.23 2.10 2.12 2.10 2.16 2.21 2.17 2.12 2.17
0.42 0.38 0.35 0.32 0.30 0.32 0.32 0.42 0.51 0.60 0.79 1.17 1.43 1.43 1.30 1.24 1.27 1.34 1.37 1.36 1.39 1.45 1.50 1.68 1.90 2.06 2.17 2.26 2.32 2.31 2.26 2.24 2.14 2.06 1.98 1.96 2.02 2.05 2.05 1.99 1.97 1.98 2.06
0.42 0.39 0.38 0.41 0.44 0.48 0.44 0.44 0.48 0.53 0.69 1.06 1.27 1.25 1.22 1.21 1.18 1.19 1.26 1.31 1.38 1.46 1.66 1.83 1.93 1.95 1.99 2.06 2.18 2.18 2.12 2.07 1.97 1.85 1.68 1.68 1.92 1.99 1.94 1.79 1.86 1.93 1.97
0.42 0.39 0.33 0.41 0.49 0.51 0.51 0.50 0.51 0.56 0.69 0.96 1.18 1.17 1.15 1.12 1.07 1.10 1.19 1.36 1.46 1.62 1.79 1.83 1.82 1.76 1.52 1.59 1.70 1.75 1.77 1.77 1.72 1.60 1.53 1.56 1.65 1.64 1.60 1.56 1.56 1.61 1.69
0.41 0.33 0.35 0.48 0.67 0.61 0.59 0.64 0.60 0.61 0.74 0.95 1.12 1.20 1.17 1.18 1.15 1.13 1.29 1.48 1.64 1.79 1.90 1.88 1.83 1.74 1.66 1.53 1.38 1.36 1.40 1.52 1.53 1.55 1.60 1.41 1.30 1.42 1.42 1.46 1.40 1.34 1.39
0.49 0.47 0.45 0.51 0.60 0.58 0.62 0.67 0.67 0.68 0.79 0.99 1.20 1.28 1.22 1.25 1.34 1.36 1.45 1.67 1.89 2.03 2.04 1.98 1.89 1.87 1.82 1.71 1.47 1.37 1.32 1.47 1.52 1.50 1.53 1.52 1.45 1.44 1.52 1.54 1.45 1.32 1.28
0.60 0.62 0.66 0.63 0.68 0.72 0.73 0.74 0.81 0.85 0.93 1.02 1.19 1.29 1.34 1.43 1.47 1.52 1.69 1.91 2.10 2.12 2.07 2.10 2.05 2.01 2.04 1.86 1.51 1.34 1.34 1.52 1.55 1.54 1.51 1.49 1.45 1.49 1.36 1.32 1.32 1.31 1.27
0.70 0.68 0.74 0.78 0.81 0.86 0.91 0.91 0.97 1.09 1.25 1.34 1.41 1.59 1.77 1.93 2.01 2.06 2.13 2.17 2.23 2.15 2.11 2.11 2.13 2.08 2.08 1.98 1.48 1.25 1.27 1.47 1.52 1.59 1.57 1.47 1.34 1.31 1.18 1.15 1.29 1.27 1.25
0.64 0.69 0.73 0.81 0.83 0.87 1.01 1.16 1.23 1.34 1.49 1.62 1.70 1.90 2.19 2.36 2.35 2.36 2.30 2.24 2.25 2.25 2.22 2.15 2.13 2.10 2.04 1.96 1.54 1.34 1.37 1.52 1.62 1.62 1.59 1.53 1.39 1.19 1.12 1.06 1.10 1.15 1.13
0.59 0.64 0.70 0.76 0.87 1.00 1.23 1.48 1.57 1.54 1.66 1.84 2.00 2.18 2.41 2.37 2.29 2.46 2.40 2.37 2.43 2.40 2.30 2.23 2.15 2.16 2.11 1.94 1.63 1.39 1.44 1.59 1.71 1.78 1.73 1.64 1.42 1.18 1.07 0.98 0.95 0.91 0.85
0.56 0.62 0.69 0.80 0.91 1.13 1.49 1.75 1.79 1.86 1.93 2.04 2.14 2.20 2.29 2.47 2.62 2.68 2.60 2.52 2.50 2.44 2.27 2.16 2.04 1.97 2.03 2.03 1.61 1.35 1.41 1.49 1.54 1.71 1.74 1.48 1.24 1.09 0.94 0.90 0.88 0.78 0.73
0.58 0.64 0.74 0.90 1.09 1.27 1.57 1.73 1.77 1.84 1.91 1.94 1.92 1.99 2.14 2.27 2.35 2.58 2.64 2.55 2.40 2.35 2.30 2.19 2.05 1.97 2.00 2.00 1.67 1.35 1.33 1.40 1.39 1.47 1.54 1.40 1.22 1.08 0.96 0.90 0.86 0.80 0.81
0.59 0.70 0.82 0.93 1.05 1.22 1.40 1.49 1.67 1.77 1.87 1.88 1.82 1.82 1.83 1.91 1.97 2.06 2.17 2.18 2.19 2.02 1.92 1.82 1.76 1.76 1.80 1.77 1.52 1.34 1.33 1.44 1.50 1.45 1.48 1.48 1.35 1.21 1.10 1.07 1.10 1.10 1.06
0.60 0.72 0.85 0.96 1.06 1.21 1.41 1.49 1.62 1.71 1.76 1.72 1.65 1.66 1.66 1.70 1.75 1.78 1.73 1.58 1.52 1.37 1.23 1.19 1.15 1.17 1.23 1.32 1.17 1.05 1.14 1.29 1.35 1.28 1.31 1.42 1.41 1.33 1.25 1.19 1.19 1.17 1.11

GEFSMW_prec_meanprecacc_198.txt.gz
Total_Precipitation_Accumulation
1.85 2.23 2.58 3.02 3.46 3.97 4.68 5.29 5.68 5.65 5.43 5.04 4.63 4.32 3.85 3.54 3.26 2.96 2.73 2.49 2.24 2.14 2.40 2.22 2.44 2.37 2.24 2.07 2.06 2.15 2.15 1.89 2.13 2.31 1.87 1.41 1.17 1.04 0.89 0.89 0.96 0.90 0.96
1.80 2.14 2.65 2.94 3.27 3.75 4.27 4.73 4.71 4.38 4.22 4.14 4.03 3.75 3.78 3.64 3.48 3.23 2.98 2.58 2.41 2.25 2.09 2.20 2.07 2.03 2.09 1.90 1.80 1.94 1.94 1.69 1.97 2.09 2.03 1.50 1.27 1.03 0.71 0.77 0.81 0.89 1.09
1.44 1.77 2.33 2.62 2.79 3.20 3.54 3.61 3.49 3.30 3.32 3.32 3.26 3.30 3.54 3.58 3.50 3.34 3.08 2.79 2.64 2.50 2.33 2.16 1.99 1.93 1.79 1.80 1.79 1.84 1.84 1.75 1.74 1.81 1.96 1.55 1.23 1.03 0.71 0.62 0.70 0.96 1.23
1.20 1.48 1.81 2.02 2.25 2.44 2.60 2.61 2.68 2.69 2.68 2.70 2.66 2.57 2.61 2.75 2.96 3.20 3.24 3.19 2.98 2.73 2.45 2.24 2.03 1.83 1.67 1.79 1.54 1.61 1.82 1.88 1.63 1.61 1.59 1.49 1.56 1.49 1.12 0.79 0.70 0.93 1.11
1.22 1.42 1.51 1.63 1.72 1.75 1.88 1.94 2.21 2.51 2.60 2.63 2.72 2.60 2.32 2.27 2.32 2.46 2.61 2.63 2.62 2.50 2.20 2.09 2.03 1.84 1.65 1.61 1.57 1.73 1.73 1.69 1.60 1.62 1.58 1.67 1.77 1.61 1.48 1.18 1.05 1.08 1.00
0.93 1.15 1.38 1.42 1.38 1.37 1.53 1.73 2.02 2.40 2.61 2.65 2.61 2.54 2.44 2.38 2.27 2.23 2.27 2.16 2.15 2.12 2.01 1.93 1.93 1.79 1.65 1.61 1.57 1.66 1.72 1.75 1.77 1.72 1.66 1.71 1.69 1.69 1.85 1.62 1.42 1.35 1.15
0.69 0.70 0.87 1.09 1.06 1.03 1.17 1.45 1.66 1.92 2.12 2.21 2.22 2.12 2.21 2.32 2.19 2.06 1.96 1.87 1.74 1.69 1.71 1.78 1.85 1.70 1.63 1.69 1.79 1.74 1.66 1.73 1.81 1.74 1.78 1.81 1.74 1.83 1.99 1.95 1.69 1.56 1.43
0.50 0.48 0.53 0.67 0.88 0.88 0.92 1.04 1.30 1.47 1.64 1.74 1.87 1.95 2.10 2.22 2.16 2.30 2.09 1.93 1.66 1.54 1.59 1.75 1.82 1.73 1.64 1.59 1.82 1.80 1.79 1.85 1.83 1.73 1.94 1.97 1.78 1.96 2.16 2.26 2.25 2.01 1.89
0.39 0.40 0.47 0.65 0.66 0.63 0.67 0.78 1.00 1.14 1.30 1.49 1.67 1.74 1.71 1.72 1.84 2.01 2.00 1.86 1.79 1.63 1.71 1.76 1.90 1.94 1.96 1.94 2.02 1.94 1.96 2.11 2.09 2.03 2.12 2.13 2.00 2.04 2.14 2.34 2.48 2.48 2.33
0.38 0.38 0.41 0.48 0.48 0.46 0.57 0.78 0.94 0.96 1.22 1.53 1.70 1.60 1.57 1.47 1.60 1.66 1.70 1.77 1.74 1.75 1.78 1.78 1.82 1.91 1.99 2.01 2.10 2.06 2.13 2.31 2.32 2.38 2.46 2.35 2.13 2.18 2.22 2.31 2.50 2.69 2.71
0.42 0.43 0.42 0.42 0.52 0.45 0.51 0.66 0.80 0.95 1.22 1.53 1.72 1.69 1.54 1.53 1.62 1.54 1.53 1.67 1.73 1.72 1.76 1.76 1.72 1.70 1.80 1.97 2.11 2.09 2.24 2.36 2.41 2.42 2.35 2.26 2.28 2.36 2.28 2.36 2.47 2.63 2.79
0.35 0.33 0.30 0.33 0.32 0.32 0.43 0.74 1.08 1.43 1.58 1.81 2.02 2.01 1.72 1.56 1.48 1.35 1.36 1.57 1.76 1.79 1.75 1.72 1.69 1.63 1.70 1.93 2.08 2.20 2.45 2.56 2.48 2.39 2.35 2.24 2.34 2.44 2.38 2.40 2.35 2.39 2.63
0.34 0.34 0.29 0.35 0.30 0.28 0.35 0.52 0.69 1.03 1.33 1.62 1.86 1.80 1.56 1.39 1.35 1.35 1.42 1.58 1.70 1.71 1.66 1.66 1.71 1.82 1.92 2.10 2.24 2.35 2.51 2.47 2.37 2.37 2.29 2.18 2.21 2.19 2.25 2.29 2.25 2.20 2.25
0.43 0.38 0.36 0.33 0.31 0.32 0.33 0.43 0.52 0.61 0.80 1.18 1.44 1.45 1.32 1.26 1.28 1.35 1.38 1.37 1.40 1.46 1.52 1.70 1.92 2.09 2.21 2.31 2.37 2.37 2.33 2.29 2.18 2.11 2.02 2.01 2.08 2.15 2.17 2.10 2.07 2.07 2.14
0.43 0.39 0.38 0.42 0.45 0.48 0.44 0.44 0.49 0.53 0.69 1.07 1.28 1.26 1.23 1.22 1.19 1.20 1.27 1.32 1.38 1.46 1.67 1.84 1.94 1.97 2.03 2.10 2.23 2.23 2.15 2.10 2.00 1.89 1.71 1.73 1.98 2.09 2.06 1.90 1.97 2.04 2.08
0.42 0.40 0.33 0.42 0.49 0.52 0.52 0.50 0.51 0.56 0.70 0.97 1.18 1.19 1.16 1.13 1.08 1.11 1.20 1.37 1.47 1.63 1.80 1.84 1.82 1.78 1.54 1.62 1.74 1.79 1.81 1.80 1.75 1.64 1.57 1.58 1.68 1.68 1.68 1.65 1.64 1.72 1.81
0.41 0.33 0.35 0.48 0.67 0.62 0.60 0.64 0.60 0.61 0.75 0.95 1.13 1.21 1.18 1.19 1.16 1.13 1.29 1.48 1.64 1.80 1.92 1.90 1.85 1.75 1.68 1.56 1.42 1.39 1.44 1.55 1.56 1.58 1.63 1.43 1.31 1.44 1.46 1.55 1.51 1.46 1.53
0.49 0.48 0.45 0.51 0.60 0.59 0.62 0.68 0.68 0.69 0.80 0.99 1.21 1.30 1.23 1.27 1.35 1.36 1.45 1.67 1.89 2.04 2.05 2.00 1.92 1.89 1.83 1.72 1.50 1.40 1.35 1.49 1.53 1.53 1.55 1.53 1.46 1.45 1.54 1.58 1.51 1.39 1.36
0.60 0.62 0.66 0.63 0.68 0.72 0.74 0.74 0.81 0.86 0.94 1.03 1.20 1.30 1.36 1.45 1.48 1.52 1.70 1.92 2.11 2.15 2.10 2.13 2.07 2.03 2.05 1.89 1.54 1.37 1.36 1.53 1.56 1.56 1.53 1.50 1.46 1.50 1.37 1.33 1.34 1.34 1.31
0.70 0.68 0.74 0.78 0.82 0.86 0.91 0.92 0.99 1.11 1.26 1.35 1.42 1.60 1.78 1.94 2.02 2.06 2.13 2.18 2.24 2.17 2.13 2.13 2.17 2.11 2.11 2.01 1.52 1.29 1.29 1.48 1.53 1.60 1.57 1.47 1.35 1.31 1.18 1.16 1.29 1.28 1.26
0.64 0.69 0.73 0.82 0.84 0.88 1.01 1.17 1.25 1.36 1.50 1.64 1.72 1.91 2.20 2.38 2.36 2.36 2.31 2.24 2.25 2.27 2.24 2.18 2.18 2.14 2.07 1.98 1.57 1.38 1.39 1.54 1.63 1.63 1.59 1.53 1.39 1.19 1.13 1.07 1.11 1.16 1.14
0.59 0.65 0.71 0.77 0.88 1.01 1.24 1.50 1.59 1.56 1.68 1.86 2.02 2.21 2.44 2.39 2.31 2.47 2.40 2.37 2.44 2.42 2.32 2.25 2.17 2.19 2.15 1.97 1.66 1.41 1.46 1.60 1.72 1.78 1.74 1.64 1.42 1.18 1.08 0.99 0.97 0.92 0.86
0.57 0.63 0.69 0.81 0.92 1.14 1.51 1.77 1.81 1.88 1.95 2.06 2.16 2.22 2.31 2.49 2.64 2.69 2.61 2.53 2.51 2.46 2.29 2.19 2.05 1.98 2.06 2.09 1.67 1.38 1.43 1.51 1.55 1.72 1.74 1.48 1.26 1.10 0.95 0.91 0.89 0.79 0.73
0.58 0.65 0.74 0.91 1.10 1.28 1.59 1.75 1.79 1.86 1.92 1.95 1.93 2.01 2.16 2.30 2.38 2.61 2.67 2.58 2.43 2.38 2.34 2.24 2.09 2.00 2.02 2.02 1.69 1.37 1.35 1.42 1.41 1.49 1.55 1.41 1.23 1.08 0.96 0.91 0.86 0.81 0.82
0.60 0.71 0.82 0.94 1.06 1.23 1.42 1.52 1.69 1.78 1.89 1.90 1.85 1.85 1.87 1.97 2.05 2.15 2.24 2.22 2.21 2.04 1.95 1.86 1.81 1.79 1.83 1.79 1.54 1.35 1.35 1.46 1.51 1.46 1.48 1.48 1.35 1.22 1.11 1.07 1.10 1.11 1.06
0.61 0.73 0.86 0.98 1.07 1.23 1.43 1.51 1.64 1.73 1.78 1.76 1.69 1.71 1.72 1.78 1.82 1.82 1.76 1.60 1.54 1.39 1.25 1.20 1.16 1.18 1.24 1.34 1.19 1.07 1.16 1.30 1.36 1.28 1.32 1.42 1.41 1.34 1.25 1.19 1.19 1.17 1.11